IZ1DME-3 Weather Reports


time (UTC)temp
C
wind
direction
speed
KPH
gust
KPH
rain 1hr
cm
rain 24hr
cm
rain mn
cm
humidity
%
barometer
mb
20260510055954 11 0.0 0.0 0.00 0.00 0.00 86 1017.1
20260510053454 11 0.0 0.0 0.00 0.00 0.00 88 1017.0
20260510044454 11 0.0 0.0 0.00 0.00 0.00 90 1017.0
20260510041954 11 0.0 0.0 0.00 0.00 0.00 90 1017.0
20260510035453 11 0.0 0.0 0.00 0.00 0.00 88 1017.2
20260510032954 11 0.0 0.0 0.00 0.00 0.00 86 1017.2
20260510021454 12 0.0 0.0 0.00 0.00 0.00 78 1017.4
20260510014954 12 0.0 0.0 0.00 0.00 0.00 76 1017.2
20260510005955 14 0.0 0.0 0.00 0.00 0.00 74 1017.0
20260510003454 14 0.0 0.0 0.00 0.00 0.00 75 1017.1
20260510000954 15 0.0 0.0 0.00 0.00 0.00 74 1016.8
20260509234454 15 0.0 0.0 0.00 0.00 0.00 73 1017.0
20260509232004 15 0.0 0.0 0.00 0.00 0.00 71 1017.1
20260509225454 15 0.0 0.0 0.00 0.00 0.00 72 1017.2
20260509222954 15 0.0 0.0 0.00 0.00 0.00 71 1017.3
20260509220454 15 0.0 0.0 0.00 0.00 0.00 70 1017.1
20260509213954 15 0.0 0.0 0.00 0.00 0.00 67 1017.0
20260509211454 16 0.0 0.0 0.00 0.00 0.00 64 1017.1
20260509204954 16 0.0 0.0 0.00 0.00 0.00 65 1017.2
20260509202454 16 0.0 0.0 0.00 0.00 0.00 60 1017.1
20260509195955 17 0.0 0.0 0.00 0.00 0.00 60 1017.0
20260509193454 17 0.0 0.0 0.00 0.00 0.00 58 1016.8
20260509190954 17 0.0 0.0 0.00 0.00 0.00 53 1016.4
20260509184455 18 0.0 0.0 0.00 0.00 0.00 50 1016.0
20260509172954 19 0.0 0.0 0.00 0.00 0.00 52 1015.6
20260509170454 20 0.0 0.0 0.00 0.00 0.00 51 1015.4